Location: ?????
(44.4284°N, 135.2222°E)
Time: 09:35:10
(UTC+00:00)

Cosmos 2221 - Pass Details

Date: 19 May 2025
Orbit: 572 x 593 km, 82.5° (Epoch: 12 June)

Event Time Altitude Azimuth Distance (km) Brightness Sun altitude
Exits shadow 13:35:45 28° 247° (WSW) 1,102 3.8 -23.1°
Maximum altitude 13:37:05 35° 284° (WNW) 945 3.7 -23.2°
Drops below altitude 10° 13:40:56 10° 351° (N) 1,895 6.1 -23.4°
Sets 13:43:17 0° 1° (N) 2,796 7.1 -23.6°
